Regional Weather Roundup
Issued by NWS Albany, NY

Home | Current Version | Previous Version | Text Only | Print | Product List | Glossary On
Versions: 1 2 3 4 5 6 7 8 9 10 11 12 13 14 15 16 17 18 19 20 21 22 23 24 25 26 27 28 29 30 31 32 33 34 35 36 37 38 39 40 41 42 43 44 45 46 47 48 49 50
000
ASUS41 KALY 291810
RWRALY

NEW YORK STATE HOURLY WEATHER ROUNDUP
NATIONAL WEATHER SERVICE ALBANY NY
200 PM EDT THU SEP 29 2016

NOTE: "FAIR" INDICATES FEW OR NO CLOUDS BELOW 12,000 FEET WITH NO
SIGNIFICANT WEATHER AND/OR NO OBSTRUCTIONS TO VISIBILITY.

NYZ032-033-038>043-046>054-057>066-NYZ062>081-082-084-291900-
EAST


CITY           SKY/WX    TMP DP  RH WIND       PRES   REMARKS
ALBANY         PTSUNNY   66  46  48 VRB3      30.43S
GLENS FALLS    FAIR      67  44  43 VRB5      30.42F
POUGHKEEPSIE   FAIR      67  45  45 E13       30.37F
NEWBURGH       CLOUDY    66  50  55 E12G17    30.39F
MONTGOMERY     CLOUDY    65  50  58 E10       30.37F
WHITE PLAINS   FAIR      64  49  57 E13       30.37F
ISLIP          CLOUDY    61  52  72 NE22G28   30.37F
NEW YORK CITY  CLOUDY    65  53  65 E18       30.36F
CENTRAL PARK   CLOUDY    63  52  67 MISG      30.39F
$$

NYZ005>009-017-018-044>046-055-056-291900-
CENTRAL


CITY           SKY/WX    TMP DP  RH WIND       PRES   REMARKS
FULTON         CLOUDY    62  49  62 VRB6      30.37F
SYRACUSE       PTSUNNY   60  50  69 E10       30.37S
ROME           CLOUDY    62  50  64 SE12      30.40F
ELMIRA         LGT RAIN  59  55  87 NE8       30.32F FOG
BINGHAMTON     CLOUDY    56  53  90 E8        30.34F
MONTICELLO     CLOUDY    57  46  67 E14       30.38F
$$

NYZ026>034-041>043-087-291900-
NORTH


CITY           SKY/WX    TMP DP  RH WIND       PRES   REMARKS
WATERTOWN      CLOUDY    65  50  58 NE12      30.38F
FORT DRUM      NOT AVBL
OGDENSBURG     FAIR      65  52  61 NE12G18   30.43F
MASSENA        FAIR      65  48  54 NE17G25   30.47F
SARANAC LAKE   FAIR      64  44  48 NE8G21    30.43F
PLATTSBURGH    FAIR      65  49  56 N9        30.47F
$$

NYZ001>004-010>016-019>021-085-291900-
WEST


CITY           SKY/WX    TMP DP  RH WIND       PRES   REMARKS
NIAGARA FALLS  LGT RAIN  60  53  77 E18G24    30.28F
BUFFALO        LGT RAIN  58  53  84 E14       30.28S
DUNKIRK        HVY RAIN  61  59  93 NE10      30.22S FOG
JAMESTOWN      CLOUDY    57  54  88 E8        30.22S
WELLSVILLE     LGT RAIN  56  54  93 SE15G26   30.30S
ROCHESTER      CLOUDY    57  54  89 E12       30.35S
PENN YAN       LGT RAIN  58  56  93 VRB5      30.34F
$$

             KEY
       WCI = WIND CHILL INDEX
       VSB = VISIBILITY
       HX  = HEAT INDEX
$$



USA.gov is the U.S. government's official web portal to all federal, state and local government web resources and services.